Location: Asheville, NC
(35.6000°N, 82.5500°W)
Time: 13:13:10
(UTC-05:00)

Tiangong 2 - Pass Details

Date: 18 February 2018
Orbit: 384 x 388 km, 42.8° (Epoch: 22 February)

Event Time Altitude Azimuth Distance (km) Brightness Sun altitude
Rises 20:18:22 0° 299° (WNW) 2,259 6.0 -25.7°
Reaches altitude 10° 20:20:30 10° 305° (NW) 1,403 4.6 -26.1°
Enters shadow 20:21:24 17° 311° (NW) 1,057 3.8 -26.3°
